| time (UTC) | temp F | wind direction | speed MPH | gust MPH | rain 1hr in | rain 24hr in | rain mn in | humidity % | barometer mb |
| 20260502130647 | 44 | 184 | 0.0 | 0.0 | 0.00 | 0.00 | 0.00 | 45 | 1005.7 |
| 20260502130145 | 43 | 183 | 0.0 | 1.0 | 0.00 | 0.00 | 0.00 | 46 | 1005.7 |
| 20260502123630 | 43 | 183 | 0.0 | 0.0 | 0.00 | 0.00 | 0.00 | 45 | 1005.7 |
| 20260502123126 | 44 | 184 | 0.0 | 0.0 | 0.00 | 0.00 | 0.00 | 45 | 1005.5 |
| 20260502122623 | 44 | 183 | 0.0 | 0.0 | 0.00 | 0.00 | 0.00 | 44 | 1005.6 |
| 20260502122120 | 44 | 184 | 0.0 | 1.0 | 0.00 | 0.00 | 0.00 | 45 | 1005.5 |
| 20260502121618 | 43 | 183 | 0.0 | 1.0 | 0.00 | 0.00 | 0.00 | 45 | 1005.6 |
| 20260502121115 | 43 | 184 | 0.0 | 0.0 | 0.00 | 0.00 | 0.00 | 46 | 1005.5 |
| 20260502120611 | 43 | 183 | 0.0 | 0.0 | 0.00 | 0.00 | 0.00 | 46 | 1005.5 |
| 20260502120109 | 43 | 184 | 0.0 | 0.0 | 0.00 | 0.00 | 0.00 | 46 | 1005.5 |
| 20260502115607 | 44 | 183 | 0.0 | 0.0 | 0.00 | 0.00 | 0.00 | 45 | 1005.6 |
| 20260502115102 | 44 | 180 | 0.0 | 0.0 | 0.00 | 0.00 | 0.00 | 44 | 1005.6 |
| 20260502114559 | 44 | 183 | 0.0 | 1.0 | 0.00 | 0.00 | 0.00 | 44 | 1005.6 |
| 20260502114055 | 44 | 180 | 0.0 | 1.0 | 0.00 | 0.00 | 0.00 | 44 | 1005.5 |
| 20260502113553 | 44 | 184 | 0.0 | 0.0 | 0.00 | 0.00 | 0.00 | 44 | 1005.5 |
| 20260502113051 | 44 | 186 | 0.0 | 1.0 | 0.00 | 0.00 | 0.00 | 45 | 1005.6 |
| 20260502112549 | 44 | 181 | 0.0 | 0.0 | 0.00 | 0.00 | 0.00 | 46 | 1005.6 |
| 20260502112046 | 44 | 182 | 0.0 | 0.0 | 0.00 | 0.00 | 0.00 | 45 | 1005.6 |
| 20260502111544 | 44 | 183 | 0.0 | 0.0 | 0.00 | 0.00 | 0.00 | 46 | 1005.6 |
| 20260502111041 | 44 | 183 | 0.0 | 0.0 | 0.00 | 0.00 | 0.00 | 46 | 1005.6 |
| 20260502110538 | 44 | 185 | 0.0 | 1.0 | 0.00 | 0.00 | 0.00 | 47 | 1005.7 |
| 20260502110036 | 44 | 183 | 0.0 | 0.0 | 0.00 | 0.00 | 0.00 | 46 | 1005.6 |
| 20260502105533 | 44 | 183 | 0.0 | 0.0 | 0.00 | 0.00 | 0.00 | 46 | 1005.5 |
| 20260502105031 | 44 | 183 | 0.0 | 0.0 | 0.00 | 0.00 | 0.00 | 46 | 1005.6 |
| 20260502104527 | 44 | 183 | 0.0 | 0.0 | 0.00 | 0.00 | 0.00 | 45 | 1005.5 |
| 20260502104025 | 44 | 183 | 0.0 | 0.0 | 0.00 | 0.00 | 0.00 | 46 | 1005.4 |
| 20260502103522 | 44 | 182 | 0.0 | 0.0 | 0.00 | 0.00 | 0.00 | 46 | 1005.6 |
| 20260502103021 | 44 | 183 | 0.0 | 0.0 | 0.00 | 0.00 | 0.00 | 47 | 1005.6 |
| 20260502102517 | 45 | 183 | 0.0 | 0.0 | 0.00 | 0.00 | 0.00 | 46 | 1005.5 |
| 20260502102014 | 45 | 180 | 0.0 | 1.0 | 0.00 | 0.00 | 0.00 | 45 | 1005.5 |
| 20260502101512 | 46 | 182 | 0.0 | 0.0 | 0.00 | 0.00 | 0.00 | 45 | 1005.7 |
| 20260502101010 | 46 | 182 | 0.0 | 0.0 | 0.00 | 0.00 | 0.00 | 44 | 1005.3 |
| 20260502100508 | 46 | 184 | 0.0 | 1.0 | 0.00 | 0.00 | 0.00 | 44 | 1005.5 |
| 20260502091442 | 48 | 175 | 0.0 | 1.0 | 0.00 | 0.00 | 0.00 | 43 | 1005.3 |
| 20260502090939 | 48 | 177 | 1.0 | 1.0 | 0.00 | 0.00 | 0.00 | 43 | 1005.2 |
| 20260502090436 | 48 | 174 | 1.0 | 1.0 | 0.00 | 0.00 | 0.00 | 44 | 1005.4 |
| 20260502071331 | 45 | 182 | 0.0 | 0.0 | 0.00 | 0.00 | 0.00 | 49 | 1005.7 |
| 20260502070829 | 45 | 185 | 0.0 | 1.0 | 0.00 | 0.00 | 0.00 | 49 | 1005.8 |
| 20260502070326 | 45 | 185 | 1.0 | 1.0 | 0.00 | 0.00 | 0.00 | 50 | 1006.0 |
| 20260502065825 | 45 | 170 | 1.0 | 1.0 | 0.00 | 0.00 | 0.00 | 50 | 1006.0 |
| 20260502065323 | 45 | 183 | 0.0 | 1.0 | 0.00 | 0.00 | 0.00 | 50 | 1005.7 |
| 20260502064821 | 45 | 183 | 0.0 | 0.0 | 0.00 | 0.00 | 0.00 | 50 | 1005.8 |
| 20260502064318 | 46 | 183 | 0.0 | 0.0 | 0.00 | 0.00 | 0.00 | 49 | 1005.8 |
| 20260502063815 | 46 | 184 | 0.0 | 0.0 | 0.00 | 0.00 | 0.00 | 49 | 1005.7 |
| 20260502063313 | 46 | 181 | 0.0 | 0.0 | 0.00 | 0.00 | 0.00 | 50 | 1005.7 |
| 20260502062810 | 46 | 182 | 0.0 | 0.0 | 0.00 | 0.00 | 0.00 | 50 | 1005.8 |
| 20260502062308 | 46 | 185 | 0.0 | 0.0 | 0.00 | 0.00 | 0.00 | 49 | 1005.7 |
| 20260502061806 | 48 | 183 | 0.0 | 0.0 | 0.00 | 0.00 | 0.00 | 47 | 1005.7 |
| 20260502061304 | 48 | 184 | 0.0 | 0.0 | 0.00 | 0.00 | 0.00 | 44 | 1005.5 |
| 20260502060759 | 49 | 183 | 0.0 | 0.0 | 0.00 | 0.00 | 0.00 | 43 | 1005.4 |
| 20260502060254 | 49 | 183 | 0.0 | 0.0 | 0.00 | 0.00 | 0.00 | 43 | 1005.4 |
| 20260502055753 | 49 | 177 | 0.0 | 0.0 | 0.00 | 0.00 | 0.00 | 42 | 1005.5 |
| 20260502055250 | 50 | 181 | 0.0 | 0.0 | 0.00 | 0.00 | 0.00 | 41 | 1005.4 |
| 20260502054749 | 50 | 184 | 0.0 | 0.0 | 0.00 | 0.00 | 0.00 | 39 | 1005.4 |
| 20260502054246 | 51 | 181 | 0.0 | 0.0 | 0.00 | 0.00 | 0.00 | 38 | 1005.5 |
| 20260502053744 | 51 | 181 | 0.0 | 0.0 | 0.00 | 0.00 | 0.00 | 38 | 1005.4 |
| 20260502053241 | 51 | 180 | 0.0 | 1.0 | 0.00 | 0.00 | 0.00 | 37 | 1005.4 |
| 20260502052739 | 51 | 175 | 0.0 | 0.0 | 0.00 | 0.00 | 0.00 | 37 | 1005.4 |
| 20260502052237 | 51 | 156 | 1.0 | 1.0 | 0.00 | 0.00 | 0.00 | 38 | 1005.3 |
| 20260502051734 | 51 | 182 | 0.0 | 1.0 | 0.00 | 0.00 | 0.00 | 38 | 1005.3 |
| 20260502051233 | 51 | 177 | 0.0 | 0.0 | 0.00 | 0.00 | 0.00 | 38 | 1005.5 |
| 20260502050729 | 52 | 182 | 0.0 | 0.0 | 0.00 | 0.00 | 0.00 | 37 | 1005.5 |
| 20260502050225 | 52 | 183 | 0.0 | 0.0 | 0.00 | 0.00 | 0.00 | 37 | 1005.6 |
| 20260502045722 | 52 | 181 | 0.0 | 0.0 | 0.00 | 0.00 | 0.00 | 37 | 1005.5 |
| 20260502045219 | 52 | 179 | 0.0 | 0.0 | 0.00 | 0.00 | 0.00 | 36 | 1005.4 |
| 20260502044716 | 52 | 183 | 0.0 | 0.0 | 0.00 | 0.00 | 0.00 | 36 | 1005.6 |
| 20260502044212 | 52 | 180 | 0.0 | 1.0 | 0.00 | 0.00 | 0.00 | 36 | 1005.5 |
| 20260502043710 | 52 | 184 | 0.0 | 0.0 | 0.00 | 0.00 | 0.00 | 36 | 1005.5 |
| 20260502043207 | 52 | 177 | 1.0 | 1.0 | 0.00 | 0.00 | 0.00 | 37 | 1005.4 |
| 20260502042706 | 52 | 181 | 0.0 | 0.0 | 0.00 | 0.00 | 0.00 | 37 | 1005.4 |
| 20260502042204 | 52 | 187 | 0.0 | 0.0 | 0.00 | 0.00 | 0.00 | 37 | 1005.4 |
| 20260502041701 | 53 | 182 | 0.0 | 0.0 | 0.00 | 0.00 | 0.00 | 37 | 1005.4 |
| 20260502041158 | 53 | 183 | 0.0 | 0.0 | 0.00 | 0.00 | 0.00 | 36 | 1005.2 |
| 20260502040655 | 53 | 183 | 0.0 | 1.0 | 0.00 | 0.00 | 0.00 | 36 | 1005.3 |
| 20260502040152 | 53 | 181 | 0.0 | 1.0 | 0.00 | 0.00 | 0.00 | 36 | 1005.0 |
| 20260502035648 | 53 | 188 | 0.0 | 0.0 | 0.00 | 0.00 | 0.00 | 35 | 1005.2 |
| 20260502035145 | 54 | 183 | 0.0 | 0.0 | 0.00 | 0.00 | 0.00 | 35 | 1005.2 |
| 20260502034643 | 54 | 182 | 1.0 | 1.0 | 0.00 | 0.00 | 0.00 | 35 | 1005.2 |
| 20260502034141 | 54 | 178 | 0.0 | 1.0 | 0.00 | 0.00 | 0.00 | 34 | 1005.3 |
| 20260502033639 | 55 | 176 | 0.0 | 1.0 | 0.00 | 0.00 | 0.00 | 34 | 1005.2 |
| 20260502033136 | 55 | 179 | 0.0 | 0.0 | 0.00 | 0.00 | 0.00 | 34 | 1004.9 |
| 20260502032632 | 55 | 183 | 0.0 | 1.0 | 0.00 | 0.00 | 0.00 | 34 | 1004.9 |
| 20260502032129 | 55 | 186 | 1.0 | 1.0 | 0.00 | 0.00 | 0.00 | 33 | 1004.8 |
| 20260502031627 | 55 | 178 | 1.0 | 1.0 | 0.00 | 0.00 | 0.00 | 33 | 1004.8 |
| 20260502031124 | 55 | 219 | 1.0 | 1.0 | 0.00 | 0.00 | 0.00 | 33 | 1004.6 |
| 20260502030623 | 55 | 183 | 0.0 | 0.0 | 0.00 | 0.00 | 0.00 | 34 | 1004.6 |
| 20260502030121 | 55 | 184 | 1.0 | 1.0 | 0.00 | 0.00 | 0.00 | 33 | 1004.5 |
| 20260502025618 | 55 | 185 | 1.0 | 1.0 | 0.00 | 0.00 | 0.00 | 34 | 1004.5 |
| 20260502025116 | 55 | 203 | 1.0 | 1.0 | 0.00 | 0.00 | 0.00 | 34 | 1004.4 |
| 20260502024613 | 56 | 181 | 1.0 | 2.0 | 0.00 | 0.00 | 0.00 | 33 | 1004.4 |
| 20260502024111 | 56 | 216 | 2.0 | 2.0 | 0.00 | 0.00 | 0.00 | 33 | 1004.2 |
| 20260502023609 | 56 | 194 | 2.0 | 2.0 | 0.00 | 0.00 | 0.00 | 33 | 1004.4 |
| 20260502023106 | 57 | 189 | 1.0 | 1.0 | 0.00 | 0.00 | 0.00 | 33 | 1004.4 |
| 20260502022602 | 57 | 183 | 1.0 | 2.0 | 0.00 | 0.00 | 0.00 | 32 | 1004.2 |
| 20260502022100 | 58 | 307 | 3.0 | 3.0 | 0.00 | 0.00 | 0.00 | 31 | 1004.2 |
| 20260502021557 | 59 | 193 | 2.0 | 2.0 | 0.00 | 0.00 | 0.00 | 29 | 1004.4 |
| 20260502021054 | 59 | 180 | 2.0 | 2.0 | 0.00 | 0.00 | 0.00 | 29 | 1004.2 |
| 20260502020551 | 59 | 270 | 2.0 | 2.0 | 0.00 | 0.00 | 0.00 | 28 | 1004.4 |
| 20260502020048 | 60 | 203 | 2.0 | 2.0 | 0.00 | 0.00 | 0.00 | 27 | 1004.1 |
| 20260502015546 | 61 | 192 | 3.0 | 3.0 | 0.00 | 0.00 | 0.00 | 27 | 1004.2 |
| 20260502015042 | 61 | 221 | 4.0 | 5.0 | 0.00 | 0.00 | 0.00 | 27 | 1004.4 |
| 20260502014539 | 62 | 189 | 3.0 | 3.0 | 0.00 | 0.00 | 0.00 | 26 | 1004.0 |
| 20260502014036 | 62 | 231 | 4.0 | 5.0 | 0.00 | 0.00 | 0.00 | 26 | 1004.1 |
| 20260502013532 | 62 | 232 | 3.0 | 3.0 | 0.00 | 0.00 | 0.00 | 26 | 1004.2 |
| 20260502013028 | 62 | 186 | 1.0 | 2.0 | 0.00 | 0.00 | 0.00 | 26 | 1004.1 |
| 20260502012526 | 62 | 263 | 4.0 | 6.0 | 0.00 | 0.00 | 0.00 | 26 | 1003.9 |
| 20260502012023 | 63 | 181 | 3.0 | 3.0 | 0.00 | 0.00 | 0.00 | 26 | 1004.1 |
| 20260502011520 | 63 | 305 | 4.0 | 6.0 | 0.00 | 0.00 | 0.00 | 26 | 1003.9 |
| 20260502011016 | 63 | 284 | 4.0 | 6.0 | 0.00 | 0.00 | 0.00 | 26 | 1003.9 |
| 20260502010514 | 64 | 212 | 4.0 | 5.0 | 0.00 | 0.00 | 0.00 | 26 | 1004.0 |
| 20260502010010 | 64 | 183 | 3.0 | 3.0 | 0.00 | 0.00 | 0.00 | 26 | 1004.0 |
| 20260502005508 | 64 | 199 | 4.0 | 6.0 | 0.00 | 0.00 | 0.00 | 25 | 1003.9 |
| 20260502005005 | 64 | 185 | 4.0 | 6.0 | 0.00 | 0.00 | 0.00 | 26 | 1003.7 |
| 20260502004500 | 64 | 315 | 4.0 | 6.0 | 0.00 | 0.00 | 0.00 | 25 | 1004.0 |
| 20260502003958 | 65 | 251 | 3.0 | 6.0 | 0.00 | 0.00 | 0.00 | 25 | 1003.9 |
| 20260502003455 | 64 | 211 | 4.0 | 5.0 | 0.00 | 0.00 | 0.00 | 25 | 1003.9 |
| 20260502002951 | 64 | 184 | 2.0 | 2.0 | 0.00 | 0.00 | 0.00 | 25 | 1004.0 |
| 20260502002449 | 65 | 208 | 6.0 | 7.0 | 0.00 | 0.00 | 0.00 | 25 | 1004.0 |
| 20260502001946 | 65 | 184 | 5.0 | 6.0 | 0.00 | 0.00 | 0.00 | 24 | 1004.0 |
| 20260502001443 | 65 | 193 | 4.0 | 6.0 | 0.00 | 0.00 | 0.00 | 23 | 1003.9 |
| 20260502000941 | 65 | 217 | 3.0 | 5.0 | 0.00 | 0.00 | 0.00 | 24 | 1004.0 |
| 20260502000439 | 65 | 249 | 5.0 | 6.0 | 0.00 | 0.00 | 0.00 | 23 | 1003.9 |
| 20260501235935 | 65 | 187 | 2.0 | 2.0 | 0.00 | 0.00 | 0.00 | 23 | 1004.0 |
| 20260501235431 | 66 | 199 | 4.0 | 5.0 | 0.00 | 0.00 | 0.00 | 23 | 1004.1 |
| 20260501234926 | 66 | 200 | 3.0 | 3.0 | 0.00 | 0.00 | 0.00 | 23 | 1003.9 |
| 20260501234423 | 66 | 215 | 4.0 | 5.0 | 0.00 | 0.00 | 0.00 | 23 | 1004.1 |
| 20260501233922 | 66 | 3 | 6.0 | 8.0 | 0.00 | 0.00 | 0.00 | 23 | 1004.1 |
| 20260501233419 | 66 | 192 | 3.0 | 5.0 | 0.00 | 0.00 | 0.00 | 23 | 1004.1 |
| 20260501232914 | 67 | 186 | 3.0 | 5.0 | 0.00 | 0.00 | 0.00 | 22 | 1004.0 |
| 20260501232412 | 66 | 233 | 6.0 | 7.0 | 0.00 | 0.00 | 0.00 | 23 | 1004.1 |
| 20260501231909 | 66 | 203 | 3.0 | 5.0 | 0.00 | 0.00 | 0.00 | 23 | 1004.0 |
| 20260501231408 | 66 | 217 | 3.0 | 3.0 | 0.00 | 0.00 | 0.00 | 22 | 1004.0 |
| 20260501230905 | 66 | 191 | 1.0 | 2.0 | 0.00 | 0.00 | 0.00 | 22 | 1004.1 |
| 20260501230404 | 66 | 190 | 2.0 | 3.0 | 0.00 | 0.00 | 0.00 | 21 | 1004.1 |
| 20260501225901 | 67 | 238 | 5.0 | 6.0 | 0.00 | 0.00 | 0.00 | 21 | 1004.2 |
| 20260501225358 | 68 | 213 | 4.0 | 6.0 | 0.00 | 0.00 | 0.00 | 20 | 1004.1 |
| 20260501224854 | 67 | 209 | 3.0 | 5.0 | 0.00 | 0.00 | 0.00 | 21 | 1004.1 |
| 20260501224352 | 67 | 187 | 2.0 | 3.0 | 0.00 | 0.00 | 0.00 | 20 | 1004.1 |
| 20260501223848 | 68 | 219 | 2.0 | 3.0 | 0.00 | 0.00 | 0.00 | 21 | 1004.2 |
| 20260501223344 | 68 | 179 | 3.0 | 3.0 | 0.00 | 0.00 | 0.00 | 21 | 1004.1 |
| 20260501222840 | 68 | 172 | 2.0 | 3.0 | 0.00 | 0.00 | 0.00 | 21 | 1004.4 |
| 20260501222338 | 68 | 211 | 3.0 | 3.0 | 0.00 | 0.00 | 0.00 | 21 | 1004.4 |
| 20260501221834 | 67 | 190 | 3.0 | 3.0 | 0.00 | 0.00 | 0.00 | 22 | 1004.2 |
| 20260501221331 | 67 | 193 | 1.0 | 1.0 | 0.00 | 0.00 | 0.00 | 20 | 1004.1 |
| 20260501220830 | 67 | 187 | 3.0 | 5.0 | 0.00 | 0.00 | 0.00 | 21 | 1004.5 |
| 20260501220327 | 68 | 6 | 5.0 | 6.0 | 0.00 | 0.00 | 0.00 | 21 | 1004.4 |
| 20260501215823 | 70 | 188 | 0.0 | 1.0 | 0.00 | 0.00 | 0.00 | 20 | 1004.6 |
| 20260501215319 | 68 | 187 | 2.0 | 2.0 | 0.00 | 0.00 | 0.00 | 22 | 1004.4 |
| 20260501214815 | 66 | 188 | 1.0 | 1.0 | 0.00 | 0.00 | 0.00 | 22 | 1004.6 |
| 20260501214310 | 67 | 278 | 6.0 | 7.0 | 0.00 | 0.00 | 0.00 | 22 | 1004.6 |
| 20260501213807 | 70 | 187 | 1.0 | 1.0 | 0.00 | 0.00 | 0.00 | 21 | 1004.6 |
| 20260501213303 | 68 | 190 | 1.0 | 1.0 | 0.00 | 0.00 | 0.00 | 22 | 1004.8 |
| 20260501212759 | 67 | 262 | 2.0 | 3.0 | 0.00 | 0.00 | 0.00 | 22 | 1004.6 |
| 20260501212255 | 66 | 189 | 3.0 | 5.0 | 0.00 | 0.00 | 0.00 | 22 | 1004.7 |
| 20260501211753 | 67 | 220 | 2.0 | 2.0 | 0.00 | 0.00 | 0.00 | 22 | 1004.7 |
| 20260501211250 | 66 | 182 | 2.0 | 3.0 | 0.00 | 0.00 | 0.00 | 22 | 1004.7 |
| 20260501210747 | 68 | 178 | 2.0 | 2.0 | 0.00 | 0.00 | 0.00 | 21 | 1004.7 |
| 20260501210243 | 70 | 192 | 0.0 | 0.0 | 0.00 | 0.00 | 0.00 | 20 | 1004.7 |
| 20260501205740 | 70 | 191 | 1.0 | 1.0 | 0.00 | 0.00 | 0.00 | 21 | 1004.8 |
| 20260501205237 | 68 | 190 | 1.0 | 1.0 | 0.00 | 0.00 | 0.00 | 22 | 1004.8 |
| 20260501204734 | 65 | 187 | 1.0 | 1.0 | 0.00 | 0.00 | 0.00 | 22 | 1004.8 |
| 20260501204231 | 66 | 191 | 2.0 | 2.0 | 0.00 | 0.00 | 0.00 | 23 | 1004.9 |
| 20260501203727 | 66 | 189 | 0.0 | 0.0 | 0.00 | 0.00 | 0.00 | 21 | 1005.0 |
| 20260501203225 | 65 | 187 | 0.0 | 0.0 | 0.00 | 0.00 | 0.00 | 23 | 1004.9 |
| 20260501202721 | 68 | 190 | 2.0 | 2.0 | 0.00 | 0.00 | 0.00 | 21 | 1005.0 |
| 20260501202218 | 66 | 189 | 1.0 | 1.0 | 0.00 | 0.00 | 0.00 | 22 | 1005.2 |
| 20260501201715 | 66 | 194 | 0.0 | 0.0 | 0.00 | 0.00 | 0.00 | 21 | 1005.0 |
| 20260501201212 | 66 | 197 | 5.0 | 6.0 | 0.00 | 0.00 | 0.00 | 23 | 1004.8 |
| 20260501200708 | 64 | 188 | 1.0 | 1.0 | 0.00 | 0.00 | 0.00 | 23 | 1005.2 |
| 20260501200206 | 65 | 133 | 2.0 | 2.0 | 0.00 | 0.00 | 0.00 | 22 | 1005.0 |
| 20260501195703 | 66 | 328 | 2.0 | 2.0 | 0.00 | 0.00 | 0.00 | 21 | 1005.3 |
| 20260501195159 | 64 | 216 | 3.0 | 5.0 | 0.00 | 0.00 | 0.00 | 24 | 1005.3 |
| 20260501194655 | 64 | 188 | 1.0 | 2.0 | 0.00 | 0.00 | 0.00 | 22 | 1005.0 |
| 20260501194150 | 64 | 195 | 2.0 | 2.0 | 0.00 | 0.00 | 0.00 | 23 | 1005.3 |
| 20260501193648 | 63 | 206 | 5.0 | 6.0 | 0.00 | 0.00 | 0.00 | 23 | 1005.3 |
| 20260501193146 | 64 | 226 | 3.0 | 3.0 | 0.00 | 0.00 | 0.00 | 22 | 1005.0 |
| 20260501192643 | 63 | 183 | 1.0 | 1.0 | 0.00 | 0.00 | 0.00 | 22 | 1005.4 |
| 20260501192140 | 63 | 208 | 2.0 | 2.0 | 0.00 | 0.00 | 0.00 | 23 | 1005.4 |
| 20260501191638 | 62 | 188 | 2.0 | 2.0 | 0.00 | 0.00 | 0.00 | 22 | 1005.4 |
| 20260501191135 | 62 | 185 | 3.0 | 3.0 | 0.00 | 0.00 | 0.00 | 23 | 1005.6 |
| 20260501190632 | 61 | 194 | 0.0 | 1.0 | 0.00 | 0.00 | 0.00 | 23 | 1005.5 |
| 20260501190132 | 62 | 245 | 5.0 | 7.0 | 0.00 | 0.00 | 0.00 | 23 | 1005.5 |
| 20260501185628 | 63 | 158 | 5.0 | 7.0 | 0.00 | 0.00 | 0.00 | 24 | 1005.7 |
| 20260501185124 | 63 | 184 | 1.0 | 2.0 | 0.00 | 0.00 | 0.00 | 22 | 1005.5 |
| 20260501184620 | 62 | 189 | 0.0 | 0.0 | 0.00 | 0.00 | 0.00 | 24 | 1005.7 |
| 20260501184115 | 62 | 209 | 2.0 | 2.0 | 0.00 | 0.00 | 0.00 | 25 | 1005.6 |
| 20260501183612 | 62 | 216 | 3.0 | 5.0 | 0.00 | 0.00 | 0.00 | 25 | 1005.7 |
| 20260501183109 | 60 | 186 | 0.0 | 0.0 | 0.00 | 0.00 | 0.00 | 25 | 1005.8 |
| 20260501182605 | 60 | 43 | 4.0 | 5.0 | 0.00 | 0.00 | 0.00 | 25 | 1005.8 |
| 20260501182102 | 61 | 198 | 2.0 | 3.0 | 0.00 | 0.00 | 0.00 | 25 | 1005.8 |
| 20260501181559 | 62 | 189 | 1.0 | 1.0 | 0.00 | 0.00 | 0.00 | 26 | 1005.8 |
| 20260501181056 | 60 | 193 | 1.0 | 1.0 | 0.00 | 0.00 | 0.00 | 26 | 1005.8 |
| 20260501180554 | 60 | 187 | 0.0 | 1.0 | 0.00 | 0.00 | 0.00 | 25 | 1006.0 |
| 20260501180050 | 60 | 285 | 3.0 | 5.0 | 0.00 | 0.00 | 0.00 | 25 | 1006.1 |
| 20260501175547 | 60 | 317 | 4.0 | 6.0 | 0.00 | 0.00 | 0.00 | 26 | 1006.1 |
| 20260501175043 | 59 | 184 | 3.0 | 3.0 | 0.00 | 0.00 | 0.00 | 27 | 1006.3 |
| 20260501174541 | 59 | 185 | 2.0 | 2.0 | 0.00 | 0.00 | 0.00 | 27 | 1006.1 |
| 20260501174039 | 59 | 195 | 3.0 | 3.0 | 0.00 | 0.00 | 0.00 | 28 | 1006.3 |
| 20260501173535 | 58 | 181 | 0.0 | 1.0 | 0.00 | 0.00 | 0.00 | 29 | 1006.1 |
| 20260501173032 | 59 | 186 | 0.0 | 1.0 | 0.00 | 0.00 | 0.00 | 27 | 1006.1 |
| 20260501172527 | 59 | 189 | 2.0 | 3.0 | 0.00 | 0.00 | 0.00 | 28 | 1006.0 |
| 20260501172023 | 59 | 201 | 2.0 | 2.0 | 0.00 | 0.00 | 0.00 | 28 | 1006.2 |
| 20260501171520 | 58 | 194 | 1.0 | 1.0 | 0.00 | 0.00 | 0.00 | 30 | 1006.2 |
| 20260501171016 | 57 | 189 | 2.0 | 2.0 | 0.00 | 0.00 | 0.00 | 30 | 1006.3 |
| 20260501170513 | 57 | 181 | 2.0 | 2.0 | 0.00 | 0.00 | 0.00 | 30 | 1006.3 |
| 20260501170010 | 57 | 235 | 3.0 | 3.0 | 0.00 | 0.00 | 0.00 | 30 | 1006.3 |
| 20260501165508 | 56 | 197 | 3.0 | 3.0 | 0.00 | 0.00 | 0.00 | 30 | 1006.1 |
| 20260501165006 | 57 | 206 | 3.0 | 3.0 | 0.00 | 0.00 | 0.00 | 31 | 1006.2 |
| 20260501164504 | 57 | 184 | 1.0 | 1.0 | 0.00 | 0.00 | 0.00 | 30 | 1006.3 |
| 20260501164000 | 57 | 186 | 0.0 | 1.0 | 0.00 | 0.00 | 0.00 | 32 | 1006.0 |
| 20260501163456 | 56 | 187 | 1.0 | 2.0 | 0.00 | 0.00 | 0.00 | 34 | 1006.1 |
| 20260501162952 | 55 | 181 | 0.0 | 0.0 | 0.00 | 0.00 | 0.00 | 33 | 1006.1 |
| 20260501162449 | 56 | 184 | 0.0 | 1.0 | 0.00 | 0.00 | 0.00 | 33 | 1006.1 |
| 20260501161946 | 56 | 185 | 1.0 | 1.0 | 0.00 | 0.00 | 0.00 | 34 | 1006.1 |
| 20260501161443 | 56 | 185 | 1.0 | 1.0 | 0.00 | 0.00 | 0.00 | 35 | 1006.2 |
| 20260501160940 | 56 | 184 | 0.0 | 0.0 | 0.00 | 0.00 | 0.00 | 35 | 1006.1 |
| 20260501160436 | 55 | 197 | 0.0 | 1.0 | 0.00 | 0.00 | 0.00 | 35 | 1005.8 |
| 20260501155934 | 55 | 183 | 0.0 | 0.0 | 0.00 | 0.00 | 0.00 | 37 | 1006.0 |
| 20260501155431 | 54 | 185 | 0.0 | 1.0 | 0.00 | 0.00 | 0.00 | 37 | 1005.8 |
| 20260501154928 | 54 | 188 | 0.0 | 0.0 | 0.00 | 0.00 | 0.00 | 36 | 1006.0 |
| 20260501154425 | 55 | 185 | 1.0 | 1.0 | 0.00 | 0.00 | 0.00 | 36 | 1005.8 |
| 20260501153922 | 54 | 182 | 1.0 | 2.0 | 0.00 | 0.00 | 0.00 | 36 | 1005.8 |
| 20260501153420 | 54 | 184 | 0.0 | 0.0 | 0.00 | 0.00 | 0.00 | 35 | 1006.0 |
| 20260501152915 | 53 | 184 | 0.0 | 0.0 | 0.00 | 0.00 | 0.00 | 35 | 1006.0 |
| 20260501152412 | 53 | 184 | 0.0 | 1.0 | 0.00 | 0.00 | 0.00 | 36 | 1006.0 |
| 20260501151910 | 53 | 185 | 1.0 | 1.0 | 0.00 | 0.00 | 0.00 | 36 | 1005.6 |
| 20260501151406 | 52 | 182 | 1.0 | 1.0 | 0.00 | 0.00 | 0.00 | 36 | 1005.7 |
| 20260501150903 | 52 | 184 | 0.0 | 1.0 | 0.00 | 0.00 | 0.00 | 37 | 1006.0 |
| 20260501150358 | 51 | 185 | 0.0 | 1.0 | 0.00 | 0.00 | 0.00 | 39 | 1006.0 |
| 20260501145855 | 51 | 183 | 0.0 | 1.0 | 0.00 | 0.00 | 0.00 | 38 | 1005.7 |
| 20260501145352 | 51 | 184 | 0.0 | 1.0 | 0.00 | 0.00 | 0.00 | 39 | 1005.7 |
| 20260501144849 | 50 | 186 | 0.0 | 0.0 | 0.00 | 0.00 | 0.00 | 41 | 1005.7 |
| 20260501144344 | 50 | 185 | 0.0 | 0.0 | 0.00 | 0.00 | 0.00 | 41 | 1005.7 |
| 20260501143841 | 50 | 187 | 1.0 | 1.0 | 0.00 | 0.00 | 0.00 | 42 | 1005.7 |
| 20260501143338 | 49 | 184 | 0.0 | 0.0 | 0.00 | 0.00 | 0.00 | 43 | 1005.5 |
| 20260501142834 | 49 | 184 | 0.0 | 0.0 | 0.00 | 0.00 | 0.00 | 42 | 1005.8 |
| 20260501142331 | 49 | 185 | 0.0 | 1.0 | 0.00 | 0.00 | 0.00 | 42 | 1005.7 |
| 20260501141827 | 48 | 187 | 0.0 | 1.0 | 0.00 | 0.00 | 0.00 | 44 | 1005.5 |
| 20260501141324 | 48 | 185 | 0.0 | 0.0 | 0.00 | 0.00 | 0.00 | 46 | 1005.3 |
| 20260501140822 | 48 | 184 | 1.0 | 1.0 | 0.00 | 0.00 | 0.00 | 45 | 1005.5 |
| 20260501140317 | 47 | 184 | 1.0 | 1.0 | 0.00 | 0.00 | 0.00 | 45 | 1005.4 |
| 20260501135814 | 46 | 184 | 0.0 | 0.0 | 0.00 | 0.00 | 0.00 | 44 | 1005.6 |
| 20260501135312 | 45 | 183 | 0.0 | 0.0 | 0.00 | 0.00 | 0.00 | 46 | 1005.4 |
| 20260501134809 | 45 | 183 | 0.0 | 0.0 | 0.00 | 0.00 | 0.00 | 48 | 1005.4 |